| time (UTC) | temp F | wind direction | speed MPH | gust MPH | rain 1hr in | rain 24hr in | rain mn in | humidity % | barometer mb |
| 20260906192021 | 73 | 61 | 4.0 | 12.0 | 0.01 | 0.03 | 0.03 | 57 | 1018.6 |
| 20260906191508 | 74 | 11 | 4.0 | 12.0 | 0.01 | 0.03 | 0.03 | 59 | 1018.5 |
| 20260906190746 | 73 | 175 | 3.0 | 11.0 | 0.01 | 0.03 | 0.03 | 61 | 1018.5 |
| 20260906190742 | 73 | 309 | 2.0 | 11.0 | 0.00 | 0.03 | 0.02 | 63 | 1018.6 |
| 20260906185745 | 73 | 289 | 4.0 | 7.0 | 0.00 | 0.03 | 0.02 | 63 | 1018.7 |
| 20260906185518 | 73 | 149 | 3.0 | 9.0 | 0.00 | 0.03 | 0.02 | 61 | 1018.6 |
| 20260906185020 | 73 | 63 | 5.0 | 10.0 | 0.00 | 0.03 | 0.02 | 59 | 1018.6 |
| 20260906184245 | 73 | 257 | 5.0 | 10.0 | 0.00 | 0.03 | 0.02 | 58 | 1018.5 |
| 20260906183745 | 73 | 275 | 2.0 | 5.0 | 0.00 | 0.03 | 0.02 | 60 | 1018.5 |
| 20260906183247 | 73 | 248 | 3.0 | 11.0 | 0.00 | 0.03 | 0.02 | 62 | 1018.6 |
| 20260906183243 | 73 | 27 | 3.0 | 11.0 | 0.00 | 0.03 | 0.02 | 59 | 1018.6 |
| 20260906182245 | 73 | 27 | 6.0 | 10.0 | 0.00 | 0.03 | 0.02 | 58 | 1018.8 |
| 20260906181744 | 73 | 324 | 2.0 | 14.0 | 0.00 | 0.03 | 0.02 | 64 | 1018.6 |
| 20260906181244 | 72 | 31 | 3.0 | 14.0 | 0.00 | 0.03 | 0.02 | 60 | 1018.7 |
| 20260906180745 | 72 | 258 | 1.0 | 10.0 | 0.00 | 0.03 | 0.02 | 62 | 1018.7 |
| 20260906180244 | 72 | 31 | 4.0 | 10.0 | 0.00 | 0.03 | 0.02 | 63 | 1018.8 |
| 20260906175745 | 72 | 275 | 4.0 | 10.0 | 0.00 | 0.03 | 0.02 | 64 | 1018.7 |
| 20260906175245 | 72 | 32 | 4.0 | 10.0 | 0.00 | 0.03 | 0.02 | 63 | 1018.8 |
| 20260906174745 | 72 | 298 | 3.0 | 11.0 | 0.00 | 0.03 | 0.02 | 63 | 1018.7 |
| 20260906174245 | 72 | 190 | 3.0 | 11.0 | 0.00 | 0.03 | 0.02 | 64 | 1018.9 |
| 20260906174238 | 71 | 307 | 4.0 | 11.0 | 0.00 | 0.03 | 0.02 | 62 | 1018.9 |
| 20260906173506 | 71 | 290 | 3.0 | 15.0 | 0.00 | 0.03 | 0.02 | 66 | 1018.8 |
| 20260906172744 | 71 | 55 | 4.0 | 15.0 | 0.00 | 0.03 | 0.02 | 63 | 1019.1 |
| 20260906172243 | 71 | 316 | 4.0 | 13.0 | 0.00 | 0.03 | 0.02 | 64 | 1019.0 |
| 20260906172011 | 71 | 357 | 4.0 | 12.0 | 0.00 | 0.03 | 0.02 | 67 | 1019.0 |
| 20260906171246 | 71 | 69 | 5.0 | 12.0 | 0.00 | 0.03 | 0.02 | 66 | 1019.0 |
| 20260906170744 | 71 | 133 | 3.0 | 11.0 | 0.00 | 0.03 | 0.02 | 65 | 1019.0 |
| 20260906170244 | 71 | 268 | 5.0 | 11.0 | 0.00 | 0.03 | 0.02 | 66 | 1018.9 |
| 20260906170009 | 71 | 79 | 4.0 | 9.0 | 0.00 | 0.03 | 0.02 | 68 | 1019.1 |
| 20260906165244 | 71 | 0 | 4.0 | 14.0 | 0.00 | 0.03 | 0.02 | 68 | 1019.0 |
| 20260906164744 | 71 | 357 | 3.0 | 14.0 | 0.00 | 0.03 | 0.02 | 71 | 1019.0 |
| 20260906164244 | 71 | 8 | 2.0 | 11.0 | 0.00 | 0.03 | 0.02 | 68 | 1019.0 |
| 20260906163744 | 70 | 18 | 2.0 | 12.0 | 0.00 | 0.03 | 0.02 | 70 | 1018.9 |
| 20260906163244 | 70 | 3 | 6.0 | 12.0 | 0.00 | 0.03 | 0.02 | 69 | 1019.0 |
| 20260906162745 | 70 | 133 | 3.0 | 12.0 | 0.00 | 0.03 | 0.02 | 74 | 1019.0 |
| 20260906162246 | 69 | 319 | 4.0 | 12.0 | 0.00 | 0.03 | 0.02 | 72 | 1019.1 |
| 20260906161744 | 69 | 41 | 2.0 | 12.0 | 0.00 | 0.03 | 0.02 | 71 | 1019.2 |
| 20260906161244 | 69 | 276 | 2.0 | 5.0 | 0.00 | 0.03 | 0.02 | 73 | 1019.2 |
| 20260906160744 | 68 | 286 | 2.0 | 7.0 | 0.00 | 0.03 | 0.02 | 75 | 1019.0 |
| 20260906160244 | 68 | 79 | 4.0 | 10.0 | 0.00 | 0.03 | 0.02 | 75 | 1019.0 |
| 20260906155744 | 68 | 17 | 2.0 | 10.0 | 0.00 | 0.03 | 0.02 | 74 | 1019.1 |
| 20260906155245 | 68 | 0 | 4.0 | 10.0 | 0.00 | 0.03 | 0.02 | 75 | 1019.2 |
| 20260906154740 | 67 | 358 | 4.0 | 10.0 | 0.00 | 0.03 | 0.02 | 75 | 1019.1 |
| 20260906154508 | 67 | 39 | 1.0 | 11.0 | 0.00 | 0.03 | 0.02 | 77 | 1019.1 |
| 20260906153740 | 67 | 18 | 4.0 | 11.0 | 0.00 | 0.03 | 0.02 | 76 | 1019.1 |
| 20260906153237 | 67 | 252 | 3.0 | 11.0 | 0.00 | 0.03 | 0.02 | 80 | 1019.0 |
| 20260906152738 | 67 | 17 | 1.0 | 11.0 | 0.00 | 0.03 | 0.02 | 77 | 1018.9 |
| 20260906152239 | 67 | 23 | 5.0 | 11.0 | 0.01 | 0.04 | 0.02 | 78 | 1019.0 |
| 20260906151735 | 67 | 68 | 4.0 | 12.0 | 0.01 | 0.04 | 0.02 | 79 | 1019.0 |
| 20260906151514 | 67 | 44 | 3.0 | 12.0 | 0.01 | 0.04 | 0.02 | 79 | 1018.9 |
| 20260906150736 | 67 | 78 | 3.0 | 10.0 | 0.01 | 0.04 | 0.02 | 78 | 1018.9 |
| 20260906150233 | 67 | 130 | 2.0 | 9.0 | 0.01 | 0.04 | 0.02 | 78 | 1018.9 |
| 20260906145733 | 67 | 73 | 2.0 | 13.0 | 0.01 | 0.03 | 0.02 | 79 | 1018.9 |
| 20260906145235 | 67 | 1 | 3.0 | 13.0 | 0.01 | 0.03 | 0.02 | 81 | 1018.8 |
| 20260906144732 | 67 | 358 | 2.0 | 11.0 | 0.01 | 0.03 | 0.02 | 81 | 1018.7 |
| 20260906144232 | 67 | 347 | 4.0 | 9.0 | 0.01 | 0.03 | 0.02 | 81 | 1018.8 |
| 20260906143731 | 67 | 34 | 1.0 | 12.0 | 0.01 | 0.03 | 0.02 | 82 | 1018.7 |
| 20260906143229 | 67 | 251 | 5.0 | 12.0 | 0.01 | 0.03 | 0.02 | 82 | 1018.7 |
| 20260906142729 | 66 | 210 | 2.0 | 10.0 | 0.01 | 0.03 | 0.02 | 84 | 1018.7 |
| 20260906142229 | 65 | 134 | 1.0 | 10.0 | 0.00 | 0.03 | 0.01 | 87 | 1018.6 |
| 20260906141728 | 65 | 30 | 3.0 | 11.0 | 0.00 | 0.03 | 0.01 | 87 | 1018.7 |
| 20260906141228 | 64 | 10 | 4.0 | 12.0 | 0.00 | 0.03 | 0.01 | 88 | 1018.6 |
| 20260906140728 | 64 | 0 | 5.0 | 12.0 | 0.00 | 0.03 | 0.01 | 91 | 1018.5 |
| 20260906140225 | 63 | 251 | 3.0 | 10.0 | 0.00 | 0.03 | 0.01 | 93 | 1018.5 |
| 20260906135927 | 62 | 348 | 3.0 | 10.0 | 0.00 | 0.03 | 0.01 | 94 | 1018.4 |
| 20260906134724 | 62 | 274 | 2.0 | 9.0 | 0.00 | 0.03 | 0.01 | 95 | 1018.4 |
| 20260906134223 | 61 | 329 | 2.0 | 9.0 | 0.00 | 0.03 | 0.01 | 95 | 1018.5 |
| 20260906133724 | 61 | 259 | 0.0 | 4.0 | 0.00 | 0.03 | 0.01 | 96 | 1018.5 |
| 20260906133222 | 61 | 303 | 3.0 | 4.0 | 0.00 | 0.03 | 0.01 | 96 | 1018.5 |
| 20260906132722 | 60 | 262 | 2.0 | 4.0 | 0.00 | 0.03 | 0.01 | 96 | 1018.2 |
| 20260906132223 | 60 | 317 | 1.0 | 4.0 | 0.00 | 0.03 | 0.01 | 96 | 1018.4 |
| 20260906131720 | 60 | 262 | 2.0 | 6.0 | 0.00 | 0.03 | 0.01 | 96 | 1018.5 |
| 20260906131219 | 60 | 330 | 2.0 | 6.0 | 0.00 | 0.03 | 0.01 | 96 | 1018.4 |
| 20260906130720 | 60 | 324 | 1.0 | 5.0 | 0.00 | 0.03 | 0.01 | 96 | 1018.5 |
| 20260906130442 | 60 | 319 | 3.0 | 5.0 | 0.00 | 0.03 | 0.01 | 96 | 1018.5 |
| 20260906125718 | 60 | 298 | 1.0 | 4.0 | 0.00 | 0.03 | 0.01 | 96 | 1018.5 |
| 20260906125217 | 60 | 331 | 2.0 | 4.0 | 0.00 | 0.03 | 0.01 | 97 | 1018.4 |
| 20260906124716 | 60 | 20 | 2.0 | 5.0 | 0.00 | 0.03 | 0.01 | 97 | 1018.4 |
| 20260906124216 | 60 | 333 | 1.0 | 5.0 | 0.00 | 0.03 | 0.01 | 97 | 1018.2 |
| 20260906123715 | 60 | 262 | 1.0 | 5.0 | 0.00 | 0.03 | 0.01 | 97 | 1018.2 |
| 20260906123214 | 59 | 275 | 2.0 | 4.0 | 0.00 | 0.03 | 0.01 | 97 | 1018.1 |
| 20260906122713 | 59 | 296 | 3.0 | 4.0 | 0.00 | 0.03 | 0.01 | 97 | 1018.1 |
| 20260906122214 | 59 | 292 | 3.0 | 5.0 | 0.00 | 0.03 | 0.01 | 97 | 1018.1 |
| 20260906121946 | 58 | 289 | 2.0 | 6.0 | 0.00 | 0.03 | 0.01 | 97 | 1018.1 |
| 20260906121212 | 58 | 293 | 4.0 | 6.0 | 0.00 | 0.03 | 0.01 | 97 | 1018.0 |
| 20260906120712 | 58 | 265 | 2.0 | 5.0 | 0.00 | 0.03 | 0.01 | 97 | 1018.0 |
| 20260906120209 | 57 | 262 | 2.0 | 5.0 | 0.00 | 0.03 | 0.01 | 96 | 1017.9 |
| 20260906115709 | 57 | 323 | 1.0 | 5.0 | 0.00 | 0.03 | 0.01 | 96 | 1017.9 |
| 20260906115210 | 57 | 288 | 2.0 | 5.0 | 0.00 | 0.03 | 0.01 | 96 | 1017.9 |
| 20260906114708 | 56 | 292 | 2.0 | 5.0 | 0.00 | 0.03 | 0.01 | 96 | 1017.8 |
| 20260906114207 | 56 | 286 | 3.0 | 4.0 | 0.00 | 0.03 | 0.01 | 96 | 1017.7 |
| 20260906113709 | 56 | 293 | 3.0 | 4.0 | 0.00 | 0.03 | 0.01 | 96 | 1017.6 |
| 20260906113440 | 56 | 293 | 2.0 | 4.0 | 0.00 | 0.03 | 0.01 | 96 | 1017.6 |
| 20260906112706 | 56 | 293 | 1.0 | 4.0 | 0.00 | 0.03 | 0.01 | 96 | 1017.7 |
| 20260906112206 | 56 | 293 | 2.0 | 4.0 | 0.00 | 0.03 | 0.01 | 96 | 1017.5 |
| 20260906111938 | 57 | 293 | 3.0 | 4.0 | 0.00 | 0.03 | 0.01 | 96 | 1017.6 |
| 20260906111204 | 57 | 293 | 2.0 | 3.0 | 0.00 | 0.03 | 0.01 | 96 | 1017.6 |
| 20260906110704 | 56 | 293 | 1.0 | 3.0 | 0.00 | 0.03 | 0.01 | 96 | 1017.5 |
| 20260906110202 | 56 | 293 | 1.0 | 2.0 | 0.00 | 0.04 | 0.01 | 96 | 1017.4 |
| 20260906105701 | 56 | 293 | 1.0 | 3.0 | 0.00 | 0.04 | 0.01 | 96 | 1017.4 |
| 20260906105202 | 56 | 357 | 1.0 | 3.0 | 0.00 | 0.04 | 0.01 | 96 | 1017.5 |
| 20260906104703 | 56 | 309 | 2.0 | 3.0 | 0.00 | 0.04 | 0.01 | 95 | 1017.3 |
| 20260906104201 | 56 | 24 | 1.0 | 3.0 | 0.00 | 0.04 | 0.01 | 95 | 1017.3 |
| 20260906103701 | 56 | 300 | 0.0 | 2.0 | 0.00 | 0.04 | 0.01 | 95 | 1017.3 |
| 20260906103202 | 56 | 300 | 1.0 | 2.0 | 0.00 | 0.04 | 0.01 | 95 | 1017.2 |
| 20260906102703 | 56 | 300 | 0.0 | 1.0 | 0.00 | 0.04 | 0.01 | 95 | 1017.2 |
| 20260906102201 | 56 | 300 | 0.0 | 0.0 | 0.00 | 0.04 | 0.01 | 95 | 1017.2 |
| 20260906101700 | 56 | 300 | 0.0 | 1.0 | 0.00 | 0.04 | 0.01 | 95 | 1017.2 |
| 20260906101211 | 56 | 300 | 0.0 | 2.0 | 0.00 | 0.04 | 0.01 | 95 | 1017.1 |
| 20260906100158 | 56 | 300 | 1.0 | 2.0 | 0.00 | 0.04 | 0.01 | 95 | 1017.0 |
| 20260906095659 | 56 | 300 | 0.0 | 1.0 | 0.00 | 0.04 | 0.01 | 95 | 1017.1 |
| 20260906095159 | 56 | 300 | 0.0 | 1.0 | 0.00 | 0.04 | 0.01 | 95 | 1017.0 |
| 20260906094659 | 57 | 300 | 1.0 | 2.0 | 0.00 | 0.04 | 0.01 | 95 | 1017.0 |
| 20260906094436 | 56 | 300 | 2.0 | 2.0 | 0.00 | 0.04 | 0.01 | 95 | 1017.0 |
| 20260906093657 | 56 | 300 | 1.0 | 3.0 | 0.00 | 0.04 | 0.01 | 95 | 1016.9 |
| 20260906093157 | 56 | 300 | 0.0 | 3.0 | 0.00 | 0.04 | 0.01 | 95 | 1016.9 |
| 20260906092657 | 56 | 300 | 1.0 | 2.0 | 0.00 | 0.04 | 0.01 | 95 | 1016.8 |
| 20260906092153 | 56 | 300 | 1.0 | 3.0 | 0.00 | 0.04 | 0.01 | 95 | 1016.7 |
| 20260906091653 | 56 | 300 | 1.0 | 3.0 | 0.00 | 0.04 | 0.01 | 95 | 1016.7 |
| 20260906091152 | 56 | 300 | 1.0 | 3.0 | 0.00 | 0.04 | 0.01 | 95 | 1016.7 |
| 20260906090651 | 57 | 300 | 2.0 | 3.0 | 0.00 | 0.04 | 0.01 | 95 | 1016.6 |
| 20260906090152 | 57 | 300 | 2.0 | 3.0 | 0.00 | 0.04 | 0.01 | 95 | 1016.6 |
| 20260906085651 | 57 | 300 | 2.0 | 3.0 | 0.00 | 0.04 | 0.01 | 95 | 1016.5 |
| 20260906085150 | 57 | 300 | 1.0 | 3.0 | 0.00 | 0.04 | 0.01 | 95 | 1016.5 |
| 20260906084649 | 57 | 300 | 0.0 | 3.0 | 0.00 | 0.04 | 0.01 | 95 | 1016.5 |
| 20260906084424 | 58 | 300 | 1.0 | 3.0 | 0.00 | 0.04 | 0.01 | 95 | 1016.5 |
| 20260906083923 | 58 | 290 | 2.0 | 3.0 | 0.00 | 0.04 | 0.01 | 95 | 1016.4 |
| 20260906083146 | 58 | 302 | 2.0 | 3.0 | 0.00 | 0.04 | 0.01 | 95 | 1016.2 |
| 20260906082923 | 58 | 314 | 0.0 | 3.0 | 0.00 | 0.04 | 0.01 | 95 | 1016.1 |
| 20260906082145 | 58 | 314 | 2.0 | 3.0 | 0.00 | 0.04 | 0.01 | 95 | 1016.2 |
| 20260906081643 | 58 | 276 | 2.0 | 4.0 | 0.00 | 0.04 | 0.01 | 96 | 1016.1 |
| 20260906081144 | 58 | 331 | 0.0 | 4.0 | 0.00 | 0.04 | 0.01 | 96 | 1016.0 |
| 20260906080642 | 58 | 59 | 1.0 | 2.0 | 0.00 | 0.04 | 0.01 | 96 | 1016.0 |
| 20260906080143 | 58 | 286 | 0.0 | 2.0 | 0.00 | 0.05 | 0.01 | 95 | 1016.1 |
| 20260906075643 | 58 | 286 | 0.0 | 2.0 | 0.00 | 0.05 | 0.01 | 95 | 1016.1 |
| 20260906075419 | 58 | 353 | 1.0 | 4.0 | 0.00 | 0.05 | 0.01 | 95 | 1016.1 |
| 20260906074644 | 57 | 343 | 0.0 | 5.0 | 0.00 | 0.05 | 0.01 | 95 | 1016.2 |
| 20260906074419 | 57 | 59 | 0.0 | 5.0 | 0.00 | 0.05 | 0.01 | 95 | 1016.1 |
| 20260906073643 | 57 | 300 | 1.0 | 4.0 | 0.00 | 0.05 | 0.01 | 95 | 1016.1 |
| 20260906073144 | 57 | 56 | 1.0 | 4.0 | 0.00 | 0.05 | 0.01 | 95 | 1016.0 |
| 20260906072644 | 57 | 16 | 2.0 | 4.0 | 0.00 | 0.05 | 0.01 | 95 | 1016.0 |
| 20260906072144 | 57 | 1 | 1.0 | 4.0 | 0.00 | 0.05 | 0.01 | 95 | 1016.0 |
| 20260906071918 | 57 | 307 | 0.0 | 4.0 | 0.00 | 0.05 | 0.01 | 95 | 1015.9 |
| 20260906071144 | 57 | 265 | 2.0 | 5.0 | 0.00 | 0.05 | 0.01 | 95 | 1016.0 |
| 20260906070917 | 57 | 255 | 2.0 | 6.0 | 0.01 | 0.05 | 0.01 | 95 | 1016.1 |
| 20260906070143 | 57 | 343 | 3.0 | 6.0 | 0.01 | 0.05 | 0.01 | 95 | 1016.1 |
| 20260906065919 | 57 | 268 | 2.0 | 4.0 | 0.01 | 0.04 | 0.01 | 94 | 1016.1 |
| 20260906065145 | 57 | 283 | 2.0 | 5.0 | 0.01 | 0.04 | 0.01 | 94 | 1016.1 |
| 20260906064919 | 57 | 282 | 2.0 | 6.0 | 0.01 | 0.04 | 0.01 | 94 | 1016.1 |
| 20260906064144 | 57 | 334 | 3.0 | 6.0 | 0.01 | 0.04 | 0.01 | 94 | 1016.1 |
| 20260906063644 | 57 | 338 | 2.0 | 6.0 | 0.01 | 0.04 | 0.01 | 94 | 1016.1 |
| 20260906063144 | 57 | 303 | 2.0 | 4.0 | 0.01 | 0.04 | 0.01 | 94 | 1016.2 |
| 20260906062644 | 57 | 295 | 1.0 | 4.0 | 0.01 | 0.04 | 0.01 | 94 | 1016.2 |
| 20260906062143 | 57 | 272 | 2.0 | 4.0 | 0.01 | 0.04 | 0.01 | 94 | 1016.2 |
| 20260906061643 | 57 | 303 | 2.0 | 4.0 | 0.01 | 0.04 | 0.01 | 94 | 1016.2 |
| 20260906061144 | 57 | 285 | 2.0 | 3.0 | 0.01 | 0.04 | 0.01 | 94 | 1016.4 |
| 20260906060644 | 57 | 281 | 0.0 | 0.0 | 0.00 | 0.04 | 0.00 | 93 | 1016.2 |
| 20260906060420 | 57 | 281 | 0.0 | 0.0 | 0.00 | 0.04 | 0.00 | 93 | 1016.2 |
| 20260906055644 | 57 | 281 | 0.0 | 1.0 | 0.00 | 0.04 | 0.00 | 92 | 1016.5 |
| 20260906055145 | 57 | 281 | 0.0 | 2.0 | 0.00 | 0.04 | 0.00 | 92 | 1016.5 |
| 20260906054644 | 58 | 281 | 0.0 | 2.0 | 0.00 | 0.04 | 0.00 | 92 | 1016.5 |
| 20260906054143 | 58 | 281 | 1.0 | 3.0 | 0.00 | 0.04 | 0.00 | 92 | 1016.6 |
| 20260906053643 | 58 | 281 | 1.0 | 3.0 | 0.00 | 0.04 | 0.00 | 92 | 1016.5 |
| 20260906053143 | 58 | 281 | 1.0 | 2.0 | 0.00 | 0.04 | 0.00 | 92 | 1016.5 |
| 20260906052643 | 58 | 281 | 0.0 | 2.0 | 0.00 | 0.04 | 0.00 | 92 | 1016.5 |
| 20260906052143 | 59 | 281 | 1.0 | 2.0 | 0.00 | 0.04 | 0.00 | 92 | 1016.5 |
| 20260906051704 | 59 | 298 | 1.0 | 2.0 | 0.00 | 0.04 | 0.00 | 92 | 1016.4 |
| 20260906051655 | 59 | 309 | 1.0 | 2.0 | 0.00 | 0.04 | 0.00 | 92 | 1016.5 |
| 20260906050643 | 59 | 281 | 0.0 | 2.0 | 0.00 | 0.04 | 0.00 | 92 | 1016.4 |
| 20260906050143 | 59 | 281 | 1.0 | 5.0 | 0.00 | 0.04 | 0.00 | 92 | 1016.2 |
| 20260906045643 | 59 | 295 | 2.0 | 5.0 | 0.00 | 0.04 | 0.00 | 92 | 1016.2 |
| 20260906045143 | 59 | 272 | 2.0 | 5.0 | 0.00 | 0.05 | 0.00 | 92 | 1016.4 |
| 20260906044636 | 59 | 299 | 0.0 | 2.0 | 0.00 | 0.05 | 0.00 | 92 | 1016.4 |
| 20260906044135 | 59 | 326 | 0.0 | 2.0 | 0.00 | 0.05 | 0.00 | 92 | 1016.5 |
| 20260906043635 | 60 | 355 | 1.0 | 2.0 | 0.00 | 0.05 | 0.00 | 92 | 1016.4 |
| 20260906043408 | 60 | 327 | 1.0 | 4.0 | 0.00 | 0.05 | 0.00 | 92 | 1016.4 |
| 20260906042633 | 60 | 307 | 1.0 | 5.0 | 0.00 | 0.05 | 0.00 | 92 | 1016.2 |
| 20260906042135 | 60 | 6 | 2.0 | 5.0 | 0.00 | 0.05 | 0.00 | 92 | 1016.4 |
| 20260906041905 | 60 | 271 | 2.0 | 5.0 | 0.00 | 0.05 | 0.00 | 91 | 1016.2 |
| 20260906041131 | 60 | 345 | 2.0 | 4.0 | 0.00 | 0.05 | 0.00 | 91 | 1016.4 |
| 20260906040631 | 60 | 262 | 0.0 | 3.0 | 0.00 | 0.05 | 0.00 | 91 | 1016.5 |
| 20260906040130 | 60 | 340 | 2.0 | 3.0 | 0.00 | 0.05 | 0.00 | 90 | 1016.4 |
| 20260906035629 | 60 | 227 | 1.0 | 3.0 | 0.00 | 0.05 | 0.05 | 90 | 1016.5 |
| 20260906035129 | 60 | 307 | 0.0 | 4.0 | 0.00 | 0.05 | 0.05 | 90 | 1016.5 |
| 20260906034628 | 60 | 292 | 0.0 | 4.0 | 0.00 | 0.05 | 0.05 | 90 | 1016.4 |
| 20260906034129 | 60 | 104 | 1.0 | 3.0 | 0.00 | 0.05 | 0.05 | 90 | 1016.4 |
| 20260906033630 | 60 | 1 | 0.0 | 3.0 | 0.00 | 0.05 | 0.05 | 90 | 1016.4 |
| 20260906033402 | 60 | 340 | 0.0 | 4.0 | 0.00 | 0.05 | 0.05 | 90 | 1016.2 |
| 20260906032628 | 60 | 326 | 1.0 | 4.0 | 0.00 | 0.05 | 0.05 | 90 | 1016.2 |
| 20260906032130 | 60 | 271 | 0.0 | 3.0 | 0.00 | 0.05 | 0.05 | 90 | 1016.2 |
| 20260906031629 | 60 | 350 | 0.0 | 3.0 | 0.00 | 0.05 | 0.05 | 90 | 1016.1 |
| 20260906031404 | 60 | 320 | 0.0 | 4.0 | 0.00 | 0.05 | 0.05 | 90 | 1016.1 |
| 20260906030629 | 60 | 283 | 2.0 | 4.0 | 0.00 | 0.05 | 0.05 | 90 | 1016.1 |
| 20260906030130 | 60 | 296 | 2.0 | 5.0 | 0.00 | 0.05 | 0.05 | 90 | 1016.1 |
| 20260906025631 | 60 | 358 | 3.0 | 5.0 | 0.00 | 0.05 | 0.05 | 90 | 1016.0 |
| 20260906025128 | 60 | 37 | 2.0 | 4.0 | 0.00 | 0.05 | 0.05 | 89 | 1016.0 |
| 20260906024629 | 61 | 71 | 1.0 | 6.0 | 0.00 | 0.05 | 0.05 | 89 | 1016.0 |
| 20260906024128 | 61 | 8 | 2.0 | 6.0 | 0.00 | 0.05 | 0.05 | 88 | 1015.9 |
| 20260906023627 | 61 | 76 | 1.0 | 3.0 | 0.00 | 0.05 | 0.05 | 87 | 1015.9 |
| 20260906023127 | 61 | 309 | 1.0 | 3.0 | 0.00 | 0.05 | 0.05 | 87 | 1016.0 |
| 20260906022628 | 61 | 282 | 0.0 | 2.0 | 0.00 | 0.05 | 0.05 | 87 | 1016.0 |
| 20260906022127 | 61 | 319 | 0.0 | 2.0 | 0.00 | 0.05 | 0.05 | 87 | 1016.0 |
| 20260906021627 | 61 | 319 | 0.0 | 2.0 | 0.00 | 0.05 | 0.05 | 86 | 1016.1 |
| 20260906021125 | 62 | 303 | 0.0 | 1.0 | 0.00 | 0.05 | 0.05 | 85 | 1016.0 |
| 20260906020624 | 62 | 58 | 0.0 | 2.0 | 0.00 | 0.06 | 0.05 | 86 | 1016.0 |
| 20260906020358 | 62 | 58 | 0.0 | 2.0 | 0.00 | 0.06 | 0.05 | 86 | 1015.9 |
| 20260906015623 | 62 | 30 | 0.0 | 3.0 | 0.00 | 0.06 | 0.05 | 85 | 1015.8 |
| 20260906015122 | 62 | 30 | 1.0 | 3.0 | 0.00 | 0.06 | 0.05 | 85 | 1015.8 |
| 20260906014621 | 62 | 47 | 0.0 | 3.0 | 0.00 | 0.06 | 0.05 | 85 | 1015.7 |
| 20260906014121 | 62 | 302 | 0.0 | 4.0 | 0.00 | 0.06 | 0.05 | 85 | 1015.7 |
| 20260906013619 | 62 | 358 | 2.0 | 5.0 | 0.00 | 0.06 | 0.05 | 85 | 1015.6 |
| 20260906013119 | 62 | 271 | 1.0 | 5.0 | 0.00 | 0.06 | 0.05 | 84 | 1015.6 |
| 20260906012618 | 62 | 303 | 1.0 | 5.0 | 0.00 | 0.06 | 0.05 | 84 | 1015.6 |
| 20260906012116 | 63 | 227 | 1.0 | 9.0 | 0.00 | 0.06 | 0.05 | 84 | 1015.5 |
| 20260906011617 | 63 | 341 | 2.0 | 9.0 | 0.00 | 0.06 | 0.05 | 84 | 1015.6 |
| 20260906011117 | 63 | 107 | 3.0 | 7.0 | 0.00 | 0.06 | 0.05 | 84 | 1015.5 |
| 20260906010617 | 63 | 313 | 2.0 | 6.0 | 0.00 | 0.06 | 0.05 | 84 | 1015.5 |
| 20260906010118 | 63 | 1 | 1.0 | 5.0 | 0.00 | 0.06 | 0.05 | 83 | 1015.5 |
| 20260906005851 | 63 | 54 | 1.0 | 6.0 | 0.00 | 0.06 | 0.05 | 82 | 1015.4 |
| 20260906005114 | 63 | 345 | 2.0 | 6.0 | 0.00 | 0.06 | 0.05 | 82 | 1015.3 |
| 20260906004832 | 63 | 254 | 0.0 | 7.0 | 0.00 | 0.06 | 0.05 | 82 | 1015.3 |
| 20260906004113 | 64 | 289 | 2.0 | 7.0 | 0.00 | 0.06 | 0.05 | 81 | 1015.2 |
| 20260906003615 | 64 | 289 | 2.0 | 5.0 | 0.00 | 0.06 | 0.05 | 81 | 1015.2 |
| 20260906003112 | 64 | 330 | 1.0 | 6.0 | 0.00 | 0.06 | 0.05 | 81 | 1015.3 |
| 20260906002611 | 64 | 23 | 1.0 | 7.0 | 0.00 | 0.06 | 0.05 | 81 | 1015.2 |
| 20260906002556 | 64 | 336 | 1.0 | 7.0 | 0.00 | 0.06 | 0.05 | 80 | 1015.2 |
| 20260906001609 | 64 | 300 | 3.0 | 6.0 | 0.00 | 0.06 | 0.05 | 80 | 1015.2 |
| 20260906001342 | 65 | 31 | 2.0 | 10.0 | 0.00 | 0.06 | 0.05 | 79 | 1015.2 |
| 20260906000608 | 65 | 234 | 3.0 | 10.0 | 0.00 | 0.06 | 0.05 | 79 | 1015.2 |
| 20260906000107 | 65 | 348 | 3.0 | 10.0 | 0.00 | 0.06 | 0.05 | 78 | 1015.2 |
| 20260905235607 | 65 | 326 | 3.0 | 10.0 | 0.00 | 0.06 | 0.05 | 78 | 1015.0 |
| 20260905235108 | 65 | 51 | 1.0 | 6.0 | 0.00 | 0.06 | 0.05 | 77 | 1015.1 |
| 20260905234610 | 66 | 152 | 0.0 | 4.0 | 0.00 | 0.06 | 0.05 | 77 | 1015.1 |
| 20260905234342 | 66 | 28 | 1.0 | 5.0 | 0.00 | 0.06 | 0.05 | 76 | 1015.1 |
| 20260905233602 | 66 | 23 | 1.0 | 6.0 | 0.00 | 0.06 | 0.05 | 75 | 1015.0 |
| 20260905233335 | 67 | 41 | 1.0 | 6.0 | 0.00 | 0.06 | 0.05 | 75 | 1015.0 |
| 20260905232602 | 67 | 337 | 1.0 | 5.0 | 0.00 | 0.06 | 0.05 | 74 | 1015.0 |
| 20260905232103 | 67 | 69 | 0.0 | 5.0 | 0.00 | 0.07 | 0.05 | 74 | 1015.0 |
| 20260905231601 | 68 | 185 | 0.0 | 9.0 | 0.00 | 0.07 | 0.05 | 73 | 1015.1 |
| 20260905231320 | 68 | 330 | 2.0 | 9.0 | 0.00 | 0.07 | 0.05 | 72 | 1015.1 |
| 20260905230601 | 68 | 282 | 2.0 | 7.0 | 0.00 | 0.07 | 0.05 | 72 | 1015.0 |
| 20260905230549 | 69 | 172 | 3.0 | 7.0 | 0.00 | 0.07 | 0.05 | 71 | 1015.1 |
| 20260905225600 | 69 | 200 | 2.0 | 7.0 | 0.00 | 0.07 | 0.05 | 71 | 1015.0 |
| 20260905225101 | 70 | 326 | 1.0 | 7.0 | 0.00 | 0.07 | 0.05 | 70 | 1015.0 |
| 20260905224836 | 71 | 113 | 0.0 | 5.0 | 0.00 | 0.07 | 0.05 | 69 | 1015.0 |
| 20260905224101 | 71 | 1 | 2.0 | 5.0 | 0.00 | 0.07 | 0.05 | 68 | 1014.9 |
| 20260905223601 | 71 | 234 | 1.0 | 4.0 | 0.00 | 0.07 | 0.05 | 67 | 1015.1 |
| 20260905223101 | 72 | 0 | 1.0 | 3.0 | 0.00 | 0.07 | 0.05 | 66 | 1015.0 |
| 20260905222600 | 72 | 345 | 0.0 | 4.0 | 0.01 | 0.07 | 0.05 | 66 | 1015.1 |
| 20260905222101 | 73 | 247 | 0.0 | 5.0 | 0.01 | 0.07 | 0.05 | 65 | 1014.8 |
| 20260905221602 | 73 | 257 | 1.0 | 5.0 | 0.01 | 0.07 | 0.05 | 64 | 1014.7 |
| 20260905221102 | 73 | 97 | 0.0 | 7.0 | 0.01 | 0.07 | 0.05 | 64 | 1014.7 |
| 20260905220839 | 73 | 310 | 1.0 | 7.0 | 0.01 | 0.07 | 0.05 | 65 | 1014.8 |
| 20260905215832 | 73 | 299 | 3.0 | 6.0 | 0.01 | 0.06 | 0.05 | 65 | 1014.7 |
| 20260905215103 | 73 | 324 | 1.0 | 4.0 | 0.01 | 0.06 | 0.05 | 66 | 1014.6 |
| 20260905215056 | 72 | 338 | 1.0 | 4.0 | 0.01 | 0.06 | 0.05 | 66 | 1014.6 |
| 20260905214316 | 72 | 331 | 0.0 | 4.0 | 0.01 | 0.06 | 0.05 | 67 | 1014.5 |
| 20260905213544 | 72 | 255 | 0.0 | 4.0 | 0.01 | 0.06 | 0.05 | 69 | 1014.5 |
| 20260905213044 | 72 | 138 | 0.0 | 4.0 | 0.01 | 0.06 | 0.05 | 69 | 1014.4 |
| 20260905212542 | 72 | 254 | 3.0 | 4.0 | 0.00 | 0.06 | 0.04 | 66 | 1014.5 |
| 20260905212042 | 72 | 329 | 0.0 | 4.0 | 0.00 | 0.06 | 0.04 | 69 | 1014.4 |
| 20260905211542 | 72 | 321 | 1.0 | 4.0 | 0.00 | 0.06 | 0.04 | 69 | 1014.4 |
| 20260905211042 | 72 | 326 | 0.0 | 5.0 | 0.00 | 0.06 | 0.04 | 67 | 1014.4 |
| 20260905211030 | 72 | 305 | 0.0 | 7.0 | 0.00 | 0.07 | 0.04 | 66 | 1014.2 |
| 20260905210042 | 73 | 302 | 1.0 | 7.0 | 0.00 | 0.07 | 0.04 | 65 | 1014.2 |
| 20260905205543 | 73 | 336 | 0.0 | 5.0 | 0.00 | 0.07 | 0.04 | 65 | 1014.4 |
| 20260905205042 | 73 | 345 | 2.0 | 5.0 | 0.00 | 0.07 | 0.04 | 66 | 1014.5 |
| 20260905204807 | 73 | 303 | 1.0 | 6.0 | 0.00 | 0.07 | 0.04 | 65 | 1014.4 |
| 20260905203542 | 73 | 344 | 2.0 | 7.0 | 0.00 | 0.07 | 0.04 | 68 | 1014.4 |
| 20260905203042 | 73 | 333 | 1.0 | 7.0 | 0.00 | 0.07 | 0.04 | 66 | 1014.5 |
| 20260905202541 | 73 | 233 | 1.0 | 7.0 | 0.00 | 0.07 | 0.04 | 66 | 1014.4 |
| 20260905202042 | 72 | 281 | 1.0 | 6.0 | 0.00 | 0.07 | 0.04 | 68 | 1014.5 |
| 20260905201542 | 72 | 307 | 2.0 | 5.0 | 0.00 | 0.07 | 0.04 | 67 | 1014.4 |
| 20260905201043 | 72 | 307 | 1.0 | 3.0 | 0.00 | 0.07 | 0.04 | 67 | 1014.4 |
| 20260905200559 | 72 | 52 | 1.0 | 5.0 | 0.00 | 0.07 | 0.04 | 66 | 1014.4 |
| 20260905200555 | 73 | 269 | 1.0 | 5.0 | 0.00 | 0.07 | 0.04 | 66 | 1014.5 |
| 20260905200547 | 72 | 62 | 1.0 | 5.0 | 0.00 | 0.07 | 0.04 | 67 | 1014.5 |
| 20260905195531 | 73 | 358 | 2.0 | 5.0 | 0.00 | 0.07 | 0.04 | 65 | 1014.4 |
| 20260905194542 | 73 | 107 | 0.0 | 5.0 | 0.00 | 0.07 | 0.04 | 65 | 1014.4 |
| 20260905194043 | 73 | 278 | 0.0 | 6.0 | 0.00 | 0.07 | 0.04 | 63 | 1014.4 |
| 20260905194033 | 73 | 0 | 1.0 | 7.0 | 0.00 | 0.07 | 0.04 | 65 | 1014.4 |
| 20260905193042 | 73 | 314 | 1.0 | 7.0 | 0.00 | 0.07 | 0.04 | 64 | 1014.4 |
| 20260905192819 | 73 | 302 | 3.0 | 6.0 | 0.00 | 0.07 | 0.04 | 67 | 1014.4 |
| 20260905192537 | 73 | 327 | 1.0 | 9.0 | 0.00 | 0.07 | 0.04 | 64 | 1014.5 |